Simultaneous Nadir Overpasses (SNOs) Predictions

Prediction of SNOs between GOES-16 and METOP-B Satellite Orbit:

Table of predicted SNOs for the next 14.0 days since TLE Epoch: 10/1/2022
Index Date Time (GOES-16) GOES-16 Lat,Lon METOP-B Lat,Lon Distance(km) Time Diff (sec)
1 10/02/2022 02:39:49 0.06, -75.19 -0.49, -77.73 289.18 80
2 10/03/2022 02:21:51 0.05, -75.19 0.63, -72.74 280.01 80
3 10/04/2022 14:38:03 -0.05, -75.21 0.42, -77.30 238.27 80
4 10/05/2022 14:20:05 -0.05, -75.21 -0.70, -72.30 331.35 80
5 10/07/2022 02:39:07 0.05, -75.22 -0.30, -76.91 192.31 80
6 10/08/2022 02:15:48 0.05, -75.23 0.76, -71.91 377.92 80
7 10/09/2022 14:34:41 -0.05, -75.26 0.22, -76.48 138.64 80
8 10/10/2022 14:16:42 -0.05, -75.27 -0.91, -71.48 432.05 80
9 10/12/2022 02:35:44 0.05, -75.29 -0.14, -76.08 90.08 80
10 10/13/2022 02:12:25 0.05, -75.31 0.99, -71.09 480.86 80
11 10/14/2022 14:31:17 -0.05, -75.34 0.05, -75.64 34.93 80
